Year,Month,Day,Hour,Minute,Value (Times are PST for temperature in C)
2013,03,23,00,00,-0.60
2013,03,23,00,01,-0.50
2013,03,23,00,02,-0.40
2013,03,23,00,03,-0.40
2013,03,23,00,04,-0.30
2013,03,23,00,05,-0.30
2013,03,23,00,06,-0.30
2013,03,23,00,07,-0.30
2013,03,23,00,08,-0.30
2013,03,23,00,09,-0.30
2013,03,23,00,10,-0.30
2013,03,23,00,11,-0.30
2013,03,23,00,12,-0.30
2013,03,23,00,13,-0.30
2013,03,23,00,14,-0.30
2013,03,23,00,15,-0.30
2013,03,23,00,16,-0.30
2013,03,23,00,17,-0.30
2013,03,23,00,18,-0.20
2013,03,23,00,19,-0.20
2013,03,23,00,20,-0.10
2013,03,23,00,21,-0.10
2013,03,23,00,22,-0.10
2013,03,23,00,23,-0.10
2013,03,23,00,24,-0.10
2013,03,23,00,25,-0.10
2013,03,23,00,26,-0.10
2013,03,23,00,27,-0.10
2013,03,23,00,28,-0.10
2013,03,23,00,29,-0.20
2013,03,23,00,30,-0.20
2013,03,23,00,31,-0.20
2013,03,23,00,32,-0.10
2013,03,23,00,33,-0.10
2013,03,23,00,34,-0.10
2013,03,23,00,35,-0.10
2013,03,23,00,36,-0.10
2013,03,23,00,37,-0.10
2013,03,23,00,38,-0.10
2013,03,23,00,39,-0.10
2013,03,23,00,40,-0.10
2013,03,23,00,41,-0.10
2013,03,23,00,42,-0.10
2013,03,23,00,43,-0.10
2013,03,23,00,44,0.00
2013,03,23,00,45,0.10
2013,03,23,00,46,0.10
2013,03,23,00,47,0.10
2013,03,23,00,48,0.10
2013,03,23,00,49,0.10
2013,03,23,00,50,0.10
2013,03,23,00,51,0.10
2013,03,23,00,52,0.10
2013,03,23,00,53,0.10
2013,03,23,00,54,0.10
2013,03,23,00,55,0.10
2013,03,23,00,56,0.10
2013,03,23,00,57,0.10
2013,03,23,00,58,0.10
2013,03,23,00,59,0.10
2013,03,23,01,00,0.10
2013,03,23,01,01,0.10
2013,03,23,01,02,0.10
2013,03,23,01,03,0.10
2013,03,23,01,04,0.10
2013,03,23,01,05,0.10
2013,03,23,01,06,0.10
2013,03,23,01,07,0.10
2013,03,23,01,08,0.20
2013,03,23,01,09,0.20
2013,03,23,01,10,0.20
2013,03,23,01,11,0.20
2013,03,23,01,12,0.20
2013,03,23,01,13,0.20
2013,03,23,01,14,0.20
2013,03,23,01,15,0.20
2013,03,23,01,16,0.20
2013,03,23,01,17,0.20
2013,03,23,01,18,0.20
2013,03,23,01,19,0.20
2013,03,23,01,20,0.20
2013,03,23,01,21,0.20
2013,03,23,01,22,0.20
2013,03,23,01,23,0.20
2013,03,23,01,24,0.20
2013,03,23,01,25,0.20
2013,03,23,01,26,0.20
2013,03,23,01,27,0.20
2013,03,23,01,28,0.20
2013,03,23,01,29,0.20
2013,03,23,01,30,0.10
2013,03,23,01,31,0.10
2013,03,23,01,32,0.10
2013,03,23,01,33,0.10
2013,03,23,01,34,0.10
2013,03,23,01,35,0.10
2013,03,23,01,36,0.10
2013,03,23,01,37,0.10
2013,03,23,01,38,0.10
2013,03,23,01,39,0.10
2013,03,23,01,40,0.10
2013,03,23,01,41,0.10
2013,03,23,01,42,0.10
2013,03,23,01,43,0.10
2013,03,23,01,44,0.10
2013,03,23,01,45,0.10
2013,03,23,01,46,0.10
2013,03,23,01,47,0.10
2013,03,23,01,48,0.10
2013,03,23,01,49,0.10
2013,03,23,01,50,0.10
2013,03,23,01,51,0.10
2013,03,23,01,52,0.10
2013,03,23,01,53,0.10
2013,03,23,01,54,0.10
2013,03,23,01,55,0.10
2013,03,23,01,56,0.10
2013,03,23,01,57,0.10
2013,03,23,01,58,0.20
2013,03,23,01,59,0.20
2013,03,23,02,00,0.20
2013,03,23,02,01,0.30
2013,03,23,02,02,0.30
2013,03,23,02,03,0.30
2013,03,23,02,04,0.30
2013,03,23,02,05,0.30
2013,03,23,02,06,0.40
2013,03,23,02,07,0.40
2013,03,23,02,08,0.40
2013,03,23,02,09,0.40
2013,03,23,02,10,0.40
2013,03,23,02,11,0.30
2013,03,23,02,12,0.30
2013,03,23,02,13,0.30
2013,03,23,02,14,0.30
2013,03,23,02,15,0.30
2013,03,23,02,16,0.30
2013,03,23,02,17,0.30
2013,03,23,02,18,0.20
2013,03,23,02,19,0.20
2013,03,23,02,20,0.20
2013,03,23,02,21,0.20
2013,03,23,02,22,0.20
2013,03,23,02,23,0.20
2013,03,23,02,24,0.20
2013,03,23,02,25,0.20
2013,03,23,02,26,0.20
2013,03,23,02,27,0.10
2013,03,23,02,28,0.10
2013,03,23,02,29,0.10
2013,03,23,02,30,0.10
2013,03,23,02,31,0.10
2013,03,23,02,32,0.10
2013,03,23,02,33,0.10
2013,03,23,02,34,0.10
2013,03,23,02,35,0.10
2013,03,23,02,36,0.20
2013,03,23,02,37,0.20
2013,03,23,02,38,0.20
2013,03,23,02,39,0.30
2013,03,23,02,40,0.30
2013,03,23,02,41,0.30
2013,03,23,02,42,0.30
2013,03,23,02,43,0.30
2013,03,23,02,44,0.30
2013,03,23,02,45,0.30
2013,03,23,02,46,0.30
2013,03,23,02,47,0.30
2013,03,23,02,48,0.20
2013,03,23,02,49,0.20
2013,03,23,02,50,0.20
2013,03,23,02,51,0.20
2013,03,23,02,52,0.20
2013,03,23,02,53,0.20
2013,03,23,02,54,0.20
2013,03,23,02,55,0.20
2013,03,23,02,56,0.10
2013,03,23,02,57,0.10
2013,03,23,02,58,0.10
2013,03,23,02,59,0.10
2013,03,23,03,00,0.10
2013,03,23,03,01,0.10
2013,03,23,03,02,0.10
2013,03,23,03,03,0.10
2013,03,23,03,04,0.10
2013,03,23,03,05,0.20
2013,03,23,03,06,0.20
2013,03,23,03,07,0.20
2013,03,23,03,08,0.20
2013,03,23,03,09,0.20
2013,03,23,03,10,0.20
2013,03,23,03,11,0.20
2013,03,23,03,12,0.20
2013,03,23,03,13,0.20
2013,03,23,03,14,0.20
2013,03,23,03,15,0.20
2013,03,23,03,16,0.20
2013,03,23,03,17,0.20
2013,03,23,03,18,0.20
2013,03,23,03,19,0.20
2013,03,23,03,20,0.20
2013,03,23,03,21,0.30
2013,03,23,03,22,0.30
2013,03,23,03,23,0.30
2013,03,23,03,24,0.40
2013,03,23,03,25,0.40
2013,03,23,03,26,0.40
2013,03,23,03,27,0.40
2013,03,23,03,28,0.40
2013,03,23,03,29,0.40
2013,03,23,03,30,0.40
2013,03,23,03,31,0.50
2013,03,23,03,32,0.50
2013,03,23,03,33,0.50
2013,03,23,03,34,0.50
2013,03,23,03,35,0.50
2013,03,23,03,36,0.50
2013,03,23,03,37,0.50
2013,03,23,03,38,0.50
2013,03,23,03,39,0.50
2013,03,23,03,40,0.50
2013,03,23,03,41,0.50
2013,03,23,03,42,0.50
2013,03,23,03,43,0.50
2013,03,23,03,44,0.50
2013,03,23,03,45,0.50
2013,03,23,03,46,0.50
2013,03,23,03,47,0.40
2013,03,23,03,48,0.40
2013,03,23,03,49,0.40
2013,03,23,03,50,0.50
2013,03,23,03,51,0.50
2013,03,23,03,52,0.50
2013,03,23,03,53,0.50
2013,03,23,03,54,0.50
2013,03,23,03,55,0.60
2013,03,23,03,56,0.60
2013,03,23,03,57,0.60
2013,03,23,03,58,0.60
2013,03,23,03,59,0.60
2013,03,23,04,00,0.70
2013,03,23,04,01,0.70
2013,03,23,04,02,0.80
2013,03,23,04,03,0.80
2013,03,23,04,04,0.80
2013,03,23,04,05,0.80
2013,03,23,04,06,0.80
2013,03,23,04,07,0.80
2013,03,23,04,08,0.90
2013,03,23,04,09,0.90
2013,03,23,04,10,0.90
2013,03,23,04,11,1.00
2013,03,23,04,12,1.00
2013,03,23,04,13,1.00
2013,03,23,04,14,1.00
2013,03,23,04,15,1.00
2013,03,23,04,16,1.10
2013,03,23,04,17,1.10
2013,03,23,04,18,1.10
2013,03,23,04,19,1.10
2013,03,23,04,20,1.10
2013,03,23,04,21,1.10
2013,03,23,04,22,1.10
2013,03,23,04,23,1.20
2013,03,23,04,24,1.20
2013,03,23,04,25,1.20
2013,03,23,04,26,1.20
2013,03,23,04,27,1.20
2013,03,23,04,28,1.20
2013,03,23,04,29,1.20
2013,03,23,04,30,1.20
2013,03,23,04,31,1.20
2013,03,23,04,32,1.20
2013,03,23,04,33,1.20
2013,03,23,04,34,1.20
2013,03,23,04,35,1.20
2013,03,23,04,36,1.20
2013,03,23,04,37,1.20
2013,03,23,04,38,1.20
2013,03,23,04,39,1.20
2013,03,23,04,40,1.20
2013,03,23,04,41,1.20
2013,03,23,04,42,1.20
2013,03,23,04,43,1.20
2013,03,23,04,44,1.20
2013,03,23,04,45,1.20
2013,03,23,04,46,1.20
2013,03,23,04,47,1.20
2013,03,23,04,48,1.20
2013,03,23,04,49,1.20
2013,03,23,04,50,1.20
2013,03,23,04,51,1.20
2013,03,23,04,52,1.20
2013,03,23,04,53,1.20
2013,03,23,04,54,1.20
2013,03,23,04,55,1.20
2013,03,23,04,56,1.20
2013,03,23,04,57,1.10
2013,03,23,04,58,1.10
2013,03,23,04,59,1.10
2013,03,23,05,00,1.10
2013,03,23,05,01,1.10
2013,03,23,05,02,1.10
2013,03,23,05,03,1.10
2013,03,23,05,04,1.00
2013,03,23,05,05,1.00
2013,03,23,05,06,1.00
2013,03,23,05,07,1.00
2013,03,23,05,08,1.00
2013,03,23,05,09,0.90
2013,03,23,05,10,0.90
2013,03,23,05,11,0.90
2013,03,23,05,12,0.90
2013,03,23,05,13,0.90
2013,03,23,05,14,0.90
2013,03,23,05,15,0.90
2013,03,23,05,16,0.90
2013,03,23,05,17,0.90
2013,03,23,05,18,0.90
2013,03,23,05,19,0.90
2013,03,23,05,20,0.90
2013,03,23,05,21,0.90
2013,03,23,05,22,0.80
2013,03,23,05,23,0.80
2013,03,23,05,24,0.80
2013,03,23,05,25,0.80
2013,03,23,05,26,0.80
2013,03,23,05,27,0.80
2013,03,23,05,28,0.80
2013,03,23,05,29,0.80
2013,03,23,05,30,0.80
2013,03,23,05,31,0.80
2013,03,23,05,32,0.80
2013,03,23,05,33,0.80
2013,03,23,05,34,0.80
2013,03,23,05,35,0.80
2013,03,23,05,36,0.80
2013,03,23,05,37,0.70
2013,03,23,05,38,0.70
2013,03,23,05,39,0.70
2013,03,23,05,40,0.70
2013,03,23,05,41,0.70
2013,03,23,05,42,0.70
2013,03,23,05,43,0.70
2013,03,23,05,44,0.70
2013,03,23,05,45,0.70
2013,03,23,05,46,0.80
2013,03,23,05,47,0.80
2013,03,23,05,48,0.80
2013,03,23,05,49,0.80
2013,03,23,05,50,0.80
2013,03,23,05,51,0.80
2013,03,23,05,52,0.80
2013,03,23,05,53,0.80
2013,03,23,05,54,0.80
2013,03,23,05,55,0.80
2013,03,23,05,56,0.80
2013,03,23,05,57,0.80
2013,03,23,05,58,0.80
2013,03,23,05,59,0.80
2013,03,23,06,00,0.80
2013,03,23,06,01,0.80
2013,03,23,06,02,0.80
2013,03,23,06,03,0.80
2013,03,23,06,04,0.80
2013,03,23,06,05,0.80
2013,03,23,06,06,0.80
2013,03,23,06,07,0.80
2013,03,23,06,08,0.80
2013,03,23,06,09,0.90
2013,03,23,06,10,0.90
2013,03,23,06,11,0.90
2013,03,23,06,12,0.90
2013,03,23,06,13,0.90
2013,03,23,06,14,0.90
2013,03,23,06,15,0.90
2013,03,23,06,16,0.90
2013,03,23,06,17,0.90
2013,03,23,06,18,0.90
2013,03,23,06,19,0.90
2013,03,23,06,20,0.90
2013,03,23,06,21,0.90
2013,03,23,06,22,0.90
2013,03,23,06,23,0.90
2013,03,23,06,24,0.90
2013,03,23,06,25,0.90
2013,03,23,06,26,0.90
2013,03,23,06,27,0.90
2013,03,23,06,28,0.90
2013,03,23,06,29,0.90
2013,03,23,06,30,0.90
2013,03,23,06,31,0.90
2013,03,23,06,32,0.90
2013,03,23,06,33,0.90
2013,03,23,06,34,0.90
2013,03,23,06,35,1.00
2013,03,23,06,36,1.00
2013,03,23,06,37,1.00
2013,03,23,06,38,1.00
2013,03,23,06,39,0.90
2013,03,23,06,40,0.90
2013,03,23,06,41,0.90
2013,03,23,06,42,0.90
2013,03,23,06,43,1.00
2013,03,23,06,44,1.00
2013,03,23,06,45,1.00
2013,03,23,06,46,1.00
2013,03,23,06,47,1.00
2013,03,23,06,48,1.00
2013,03,23,06,49,1.10
2013,03,23,06,50,1.10
2013,03,23,06,51,1.10
2013,03,23,06,52,1.10
2013,03,23,06,53,1.10
2013,03,23,06,54,1.10
2013,03,23,06,55,1.10
2013,03,23,06,56,1.20
2013,03,23,06,57,1.20
2013,03,23,06,58,1.20
2013,03,23,06,59,1.20
2013,03,23,07,00,1.20
2013,03,23,07,01,1.20
2013,03,23,07,02,1.20
2013,03,23,07,03,1.20
2013,03,23,07,04,1.20
2013,03,23,07,05,1.30
2013,03,23,07,06,1.30
2013,03,23,07,07,1.30
2013,03,23,07,08,1.30
2013,03,23,07,09,1.30
2013,03,23,07,10,1.30
2013,03,23,07,11,1.30
2013,03,23,07,12,1.30
2013,03,23,07,13,1.30
2013,03,23,07,14,1.30
2013,03,23,07,15,1.30
2013,03,23,07,16,1.30
2013,03,23,07,17,1.30
2013,03,23,07,18,1.30
2013,03,23,07,19,1.30
2013,03,23,07,20,1.30
2013,03,23,07,21,1.30
2013,03,23,07,22,1.30
2013,03,23,07,23,1.30
2013,03,23,07,24,1.30
2013,03,23,07,25,1.30
2013,03,23,07,26,1.30
2013,03,23,07,27,1.30
2013,03,23,07,28,1.30
2013,03,23,07,29,1.30
2013,03,23,07,30,1.30
2013,03,23,07,31,1.30
2013,03,23,07,32,1.40
2013,03,23,07,33,1.40
2013,03,23,07,34,1.40
2013,03,23,07,35,1.40
2013,03,23,07,36,1.40
2013,03,23,07,37,1.40
2013,03,23,07,38,1.40
2013,03,23,07,39,1.40
2013,03,23,07,40,1.40
2013,03,23,07,41,1.30
2013,03,23,07,42,1.30
2013,03,23,07,43,1.30
2013,03,23,07,44,1.30
2013,03,23,07,45,1.30
2013,03,23,07,46,1.30
2013,03,23,07,47,1.30
2013,03,23,07,48,1.30
2013,03,23,07,49,1.30
2013,03,23,07,50,1.30
2013,03,23,07,51,1.30
2013,03,23,07,52,1.30
2013,03,23,07,53,1.30
2013,03,23,07,54,1.30
2013,03,23,07,55,1.30
2013,03,23,07,56,1.30
2013,03,23,07,57,1.30
2013,03,23,07,58,1.30
2013,03,23,07,59,1.40
2013,03,23,08,00,1.50
2013,03,23,08,01,1.50
2013,03,23,08,02,1.60
2013,03,23,08,03,1.70
2013,03,23,08,04,1.70
2013,03,23,08,05,1.80
2013,03,23,08,06,1.80
2013,03,23,08,07,1.80
2013,03,23,08,08,1.80
2013,03,23,08,09,1.80
2013,03,23,08,10,1.80
2013,03,23,08,11,1.90
2013,03,23,08,12,1.90
2013,03,23,08,13,2.00
2013,03,23,08,14,2.00
2013,03,23,08,15,2.10
2013,03,23,08,16,2.10
2013,03,23,08,17,2.10
2013,03,23,08,18,2.20
2013,03,23,08,19,2.20
2013,03,23,08,20,2.20
2013,03,23,08,21,2.20
2013,03,23,08,22,2.20
2013,03,23,08,23,2.30
2013,03,23,08,24,2.30
2013,03,23,08,25,2.30
2013,03,23,08,26,2.40
2013,03,23,08,27,2.40
2013,03,23,08,28,2.40
2013,03,23,08,29,2.50
2013,03,23,08,30,2.50
2013,03,23,08,31,2.50
2013,03,23,08,32,2.60
2013,03,23,08,33,2.60
2013,03,23,08,34,2.70
2013,03,23,08,35,2.70
2013,03,23,08,36,2.70
2013,03,23,08,37,2.70
2013,03,23,08,38,2.70
2013,03,23,08,39,2.70
2013,03,23,08,40,2.70
2013,03,23,08,41,2.80
2013,03,23,08,42,2.80
2013,03,23,08,43,2.90
2013,03,23,08,44,2.90
2013,03,23,08,45,2.90
2013,03,23,08,46,3.00
2013,03,23,08,47,3.10
2013,03,23,08,48,3.10
2013,03,23,08,49,3.20
2013,03,23,08,50,3.20
2013,03,23,08,51,3.30
2013,03,23,08,52,3.30
2013,03,23,08,53,3.40
2013,03,23,08,54,3.50
2013,03,23,08,55,3.50
2013,03,23,08,56,3.60
2013,03,23,08,57,3.70
2013,03,23,08,58,3.80
2013,03,23,08,59,3.80
2013,03,23,09,00,3.90
2013,03,23,09,01,3.90
2013,03,23,09,02,4.00
2013,03,23,09,03,4.00
2013,03,23,09,04,4.10
2013,03,23,09,05,4.20
2013,03,23,09,06,4.30
2013,03,23,09,07,4.40
2013,03,23,09,08,4.40
2013,03,23,09,09,4.40
2013,03,23,09,10,4.40
2013,03,23,09,11,4.50
2013,03,23,09,12,4.50
2013,03,23,09,13,4.50
2013,03,23,09,14,4.50
2013,03,23,09,15,4.60
2013,03,23,09,16,4.60
2013,03,23,09,17,4.70
2013,03,23,09,18,4.70
2013,03,23,09,19,4.70
2013,03,23,09,20,4.80
2013,03,23,09,21,4.80
2013,03,23,09,22,4.80
2013,03,23,09,23,4.90
2013,03,23,09,24,4.90
2013,03,23,09,25,4.90
2013,03,23,09,26,4.90
2013,03,23,09,27,4.90
2013,03,23,09,28,4.90
2013,03,23,09,29,4.90
2013,03,23,09,30,4.80
2013,03,23,09,31,4.80
2013,03,23,09,32,4.80
2013,03,23,09,33,4.80
2013,03,23,09,34,4.80
2013,03,23,09,35,4.70
2013,03,23,09,36,4.70
2013,03,23,09,37,4.70
2013,03,23,09,38,4.70
2013,03,23,09,39,4.70
2013,03,23,09,40,4.60
2013,03,23,09,41,4.60
2013,03,23,09,42,4.60
2013,03,23,09,43,4.60
2013,03,23,09,44,4.60
2013,03,23,09,45,4.60
2013,03,23,09,46,4.60
2013,03,23,09,47,4.60
2013,03,23,09,48,4.60
2013,03,23,09,49,4.50
2013,03,23,09,50,4.50
2013,03,23,09,51,4.50
2013,03,23,09,52,4.50
2013,03,23,09,53,4.50
2013,03,23,09,54,4.50
2013,03,23,09,55,4.60
2013,03,23,09,56,4.60
2013,03,23,09,57,4.60
2013,03,23,09,58,4.60
2013,03,23,09,59,4.60
2013,03,23,10,00,4.60
2013,03,23,10,01,4.60
2013,03,23,10,02,4.70
2013,03,23,10,03,4.80
2013,03,23,10,04,4.80
2013,03,23,10,05,4.90
2013,03,23,10,06,4.90
2013,03,23,10,07,5.10
2013,03,23,10,08,5.10
2013,03,23,10,09,5.10
2013,03,23,10,10,5.20
2013,03,23,10,11,5.20
2013,03,23,10,12,5.30
2013,03,23,10,13,5.40
2013,03,23,10,14,5.50
2013,03,23,10,15,5.60
2013,03,23,10,16,5.70
2013,03,23,10,17,5.70
2013,03,23,10,18,5.70
2013,03,23,10,19,5.70
2013,03,23,10,20,5.70
2013,03,23,10,21,5.70
2013,03,23,10,22,5.70
2013,03,23,10,23,5.80
2013,03,23,10,24,5.90
2013,03,23,10,25,6.00
2013,03,23,10,26,6.00
2013,03,23,10,27,6.00
2013,03,23,10,28,6.00
2013,03,23,10,29,5.90
2013,03,23,10,30,5.90
2013,03,23,10,31,6.00
2013,03,23,10,32,6.00
2013,03,23,10,33,6.00
2013,03,23,10,34,6.10
2013,03,23,10,35,6.20
2013,03,23,10,36,6.20
2013,03,23,10,37,6.30
2013,03,23,10,38,6.20
2013,03,23,10,39,6.30
2013,03,23,10,40,6.30
2013,03,23,10,41,6.30
2013,03,23,10,42,6.40
2013,03,23,10,43,6.50
2013,03,23,10,44,6.60
2013,03,23,10,45,6.60
2013,03,23,10,46,6.70
2013,03,23,10,47,6.70
2013,03,23,10,48,6.60
2013,03,23,10,49,6.60
2013,03,23,10,50,6.60
2013,03,23,10,51,6.60
2013,03,23,10,52,6.70
2013,03,23,10,53,6.80
2013,03,23,10,54,6.80
2013,03,23,10,55,7.00
2013,03,23,10,56,7.10
2013,03,23,10,57,7.20
2013,03,23,10,58,7.30
2013,03,23,10,59,7.30
2013,03,23,11,00,7.30
2013,03,23,11,01,7.10
2013,03,23,11,02,7.00
2013,03,23,11,03,6.90
2013,03,23,11,04,6.80
2013,03,23,11,05,6.90
2013,03,23,11,06,6.90
2013,03,23,11,07,6.90
2013,03,23,11,08,6.80
2013,03,23,11,09,6.70
2013,03,23,11,10,6.60
2013,03,23,11,11,6.70
2013,03,23,11,12,6.80
2013,03,23,11,13,6.90
2013,03,23,11,14,7.00
2013,03,23,11,15,6.90
2013,03,23,11,16,6.90
2013,03,23,11,17,6.90
2013,03,23,11,18,6.90
2013,03,23,11,19,7.00
2013,03,23,11,20,7.00
2013,03,23,11,21,6.90
2013,03,23,11,22,6.90
2013,03,23,11,23,6.80
2013,03,23,11,24,6.80
2013,03,23,11,25,6.80
2013,03,23,11,26,6.80
2013,03,23,11,27,6.80
2013,03,23,11,28,6.90
2013,03,23,11,29,6.90
2013,03,23,11,30,7.00
2013,03,23,11,31,7.10
2013,03,23,11,32,7.20
2013,03,23,11,33,7.30
2013,03,23,11,34,7.30
2013,03,23,11,35,7.30
2013,03,23,11,36,7.30
2013,03,23,11,37,7.30
2013,03,23,11,38,7.40
2013,03,23,11,39,7.40
2013,03,23,11,40,7.40
2013,03,23,11,41,7.50
2013,03,23,11,42,7.60
2013,03,23,11,43,7.60
2013,03,23,11,44,7.60
2013,03,23,11,45,7.70
2013,03,23,11,46,7.60
2013,03,23,11,47,7.60
2013,03,23,11,48,7.60
2013,03,23,11,49,7.60
2013,03,23,11,50,7.60
2013,03,23,11,51,7.70
2013,03,23,11,52,7.80
2013,03,23,11,53,7.80
2013,03,23,11,54,7.80
2013,03,23,11,55,7.80
2013,03,23,11,56,7.80
2013,03,23,11,57,7.70
2013,03,23,11,58,7.60
2013,03,23,11,59,7.60
2013,03,23,12,00,7.50
2013,03,23,12,01,7.40
2013,03,23,12,02,7.30
2013,03,23,12,03,7.30
2013,03,23,12,04,7.30
2013,03,23,12,05,7.40
2013,03,23,12,06,7.40
2013,03,23,12,07,7.50
2013,03,23,12,08,7.60
2013,03,23,12,09,7.80
2013,03,23,12,10,7.80
2013,03,23,12,11,7.90
2013,03,23,12,12,7.90
2013,03,23,12,13,8.00
2013,03,23,12,14,8.00
2013,03,23,12,15,8.20
2013,03,23,12,16,8.20
2013,03,23,12,17,8.30
2013,03,23,12,18,8.30
2013,03,23,12,19,8.20
2013,03,23,12,20,8.20
2013,03,23,12,21,8.10
2013,03,23,12,22,8.10
2013,03,23,12,23,8.20
2013,03,23,12,24,8.00
2013,03,23,12,25,8.10
2013,03,23,12,26,8.10
2013,03,23,12,27,8.20
2013,03,23,12,28,8.20
2013,03,23,12,29,8.20
2013,03,23,12,30,8.30
2013,03,23,12,31,8.20
2013,03,23,12,32,8.20
2013,03,23,12,33,8.20
2013,03,23,12,34,8.20
2013,03,23,12,35,8.30
2013,03,23,12,36,8.40
2013,03,23,12,37,8.40
2013,03,23,12,38,8.50
2013,03,23,12,39,8.70
2013,03,23,12,40,8.70
2013,03,23,12,41,8.50
2013,03,23,12,42,8.30
2013,03,23,12,43,8.20
2013,03,23,12,44,8.10
2013,03,23,12,45,8.10
2013,03,23,12,46,8.10
2013,03,23,12,47,8.10
2013,03,23,12,48,8.00
2013,03,23,12,49,8.10
2013,03,23,12,50,8.10
2013,03,23,12,51,7.90
2013,03,23,12,52,7.80
2013,03,23,12,53,7.80
2013,03,23,12,54,7.80
2013,03,23,12,55,7.90
2013,03,23,12,56,8.00
2013,03,23,12,57,8.10
2013,03,23,12,58,8.20
2013,03,23,12,59,8.20
2013,03,23,13,00,8.20
2013,03,23,13,01,8.20
2013,03,23,13,02,8.20
2013,03,23,13,03,8.20
2013,03,23,13,04,8.20
2013,03,23,13,05,8.20
2013,03,23,13,06,8.20
2013,03,23,13,07,8.20
2013,03,23,13,08,8.20
2013,03,23,13,09,8.20
2013,03,23,13,10,8.20
2013,03,23,13,11,8.30
2013,03,23,13,12,8.30
2013,03,23,13,13,8.30
2013,03,23,13,14,8.30
2013,03,23,13,15,8.30
2013,03,23,13,16,8.40
2013,03,23,13,17,8.40
2013,03,23,13,18,8.30
2013,03,23,13,19,8.40
2013,03,23,13,20,8.40
2013,03,23,13,21,8.40
2013,03,23,13,22,8.30
2013,03,23,13,23,8.30
2013,03,23,13,24,8.40
2013,03,23,13,25,8.40
2013,03,23,13,26,8.40
2013,03,23,13,27,8.30
2013,03,23,13,28,8.30
2013,03,23,13,29,8.30
2013,03,23,13,30,8.30
2013,03,23,13,31,8.30
2013,03,23,13,32,8.30
2013,03,23,13,33,8.40
2013,03,23,13,34,8.40
2013,03,23,13,35,8.40
2013,03,23,13,36,8.30
2013,03,23,13,37,8.30
2013,03,23,13,38,8.40
2013,03,23,13,39,8.40
2013,03,23,13,40,8.40
2013,03,23,13,41,8.50
2013,03,23,13,42,8.50
2013,03,23,13,43,8.60
2013,03,23,13,44,8.50
2013,03,23,13,45,8.60
2013,03,23,13,46,8.60
2013,03,23,13,47,8.70
2013,03,23,13,48,8.80
2013,03,23,13,49,9.10
2013,03,23,13,50,9.20
2013,03,23,13,51,9.10
2013,03,23,13,52,8.90
2013,03,23,13,53,8.70
2013,03,23,13,54,8.70
2013,03,23,13,55,8.70
2013,03,23,13,56,8.60
2013,03,23,13,57,8.60
2013,03,23,13,58,8.70
2013,03,23,13,59,8.70
2013,03,23,14,00,8.70
2013,03,23,14,01,8.70
2013,03,23,14,02,8.80
2013,03,23,14,03,8.80
2013,03,23,14,04,8.80
2013,03,23,14,05,8.80
2013,03,23,14,06,8.90
2013,03,23,14,07,8.90
2013,03,23,14,08,8.90
2013,03,23,14,09,9.00
2013,03,23,14,10,9.00
2013,03,23,14,11,8.90
2013,03,23,14,12,8.90
2013,03,23,14,13,8.90
2013,03,23,14,14,9.00
2013,03,23,14,15,9.00
2013,03,23,14,16,9.10
2013,03,23,14,17,9.20
2013,03,23,14,18,9.20
2013,03,23,14,19,9.20
2013,03,23,14,20,9.20
2013,03,23,14,21,9.10
2013,03,23,14,22,8.90
2013,03,23,14,23,8.80
2013,03,23,14,24,9.00
2013,03,23,14,25,9.10
2013,03,23,14,26,9.10
2013,03,23,14,27,9.00
2013,03,23,14,28,9.00
2013,03,23,14,29,9.10
2013,03,23,14,30,9.00
2013,03,23,14,31,8.90
2013,03,23,14,32,9.00
2013,03,23,14,33,9.00
2013,03,23,14,34,9.20
2013,03,23,14,35,9.20
2013,03,23,14,36,9.20
2013,03,23,14,37,9.10
2013,03,23,14,38,9.00
2013,03,23,14,39,8.80
2013,03,23,14,40,8.70
2013,03,23,14,41,8.70
2013,03,23,14,42,8.80
2013,03,23,14,43,8.80
2013,03,23,14,44,8.70
2013,03,23,14,45,8.70
2013,03,23,14,46,8.80
2013,03,23,14,47,8.80
2013,03,23,14,48,8.70
2013,03,23,14,49,8.80
2013,03,23,14,50,8.90
2013,03,23,14,51,8.90
2013,03,23,14,52,8.90
2013,03,23,14,53,8.90
2013,03,23,14,54,9.00
2013,03,23,14,55,9.00
2013,03,23,14,56,9.00
2013,03,23,14,57,9.10
2013,03,23,14,58,9.00
2013,03,23,14,59,9.00
2013,03,23,15,00,8.90
2013,03,23,15,01,8.80
2013,03,23,15,02,8.80
2013,03,23,15,03,8.90
2013,03,23,15,04,8.90
2013,03,23,15,05,9.00
2013,03,23,15,06,9.00
2013,03,23,15,07,9.10
2013,03,23,15,08,9.10
2013,03,23,15,09,9.20
2013,03,23,15,10,9.20
2013,03,23,15,11,9.20
2013,03,23,15,12,9.20
2013,03,23,15,13,9.20
2013,03,23,15,14,9.20
2013,03,23,15,15,9.10
2013,03,23,15,16,9.00
2013,03,23,15,17,9.00
2013,03,23,15,18,9.00
2013,03,23,15,19,9.00
2013,03,23,15,20,9.00
2013,03,23,15,21,9.00
2013,03,23,15,22,9.00
2013,03,23,15,23,9.10
2013,03,23,15,24,9.00
2013,03,23,15,25,9.10
2013,03,23,15,26,9.20
2013,03,23,15,27,9.20
2013,03,23,15,28,9.20
2013,03,23,15,29,9.20
2013,03,23,15,30,9.20
2013,03,23,15,31,9.20
2013,03,23,15,32,9.20
2013,03,23,15,33,9.20
2013,03,23,15,34,9.20
2013,03,23,15,35,9.20
2013,03,23,15,36,9.20
2013,03,23,15,37,9.20
2013,03,23,15,38,9.30
2013,03,23,15,39,9.30
2013,03,23,15,40,9.40
2013,03,23,15,41,9.50
2013,03,23,15,42,9.60
2013,03,23,15,43,9.60
2013,03,23,15,44,9.50
2013,03,23,15,45,9.40
2013,03,23,15,46,9.30
2013,03,23,15,47,9.20
2013,03,23,15,48,9.30
2013,03,23,15,49,9.40
2013,03,23,15,50,9.40
2013,03,23,15,51,9.50
2013,03,23,15,52,9.40
2013,03,23,15,53,9.40
2013,03,23,15,54,9.50
2013,03,23,15,55,9.50
2013,03,23,15,56,9.60
2013,03,23,15,57,9.60
2013,03,23,15,58,9.60
2013,03,23,15,59,9.50
2013,03,23,16,00,9.50
2013,03,23,16,01,9.40
2013,03,23,16,02,9.40
2013,03,23,16,03,9.30
2013,03,23,16,04,9.20
2013,03,23,16,05,9.20
2013,03,23,16,06,9.40
2013,03,23,16,07,9.40
2013,03,23,16,08,9.50
2013,03,23,16,09,9.40
2013,03,23,16,10,9.40
2013,03,23,16,11,9.40
2013,03,23,16,12,9.50
2013,03,23,16,13,9.50
2013,03,23,16,14,9.50
2013,03,23,16,15,9.40
2013,03,23,16,16,9.40
2013,03,23,16,17,9.30
2013,03,23,16,18,9.20
2013,03,23,16,19,9.20
2013,03,23,16,20,9.00
2013,03,23,16,21,9.00
2013,03,23,16,22,8.90
2013,03,23,16,23,9.00
2013,03,23,16,24,9.10
2013,03,23,16,25,9.20
2013,03,23,16,26,9.40
2013,03,23,16,27,9.40
2013,03,23,16,28,9.50
2013,03,23,16,29,9.60
2013,03,23,16,30,9.70
2013,03,23,16,31,9.70
2013,03,23,16,32,9.60
2013,03,23,16,33,9.60
2013,03,23,16,34,9.60
2013,03,23,16,35,9.50
2013,03,23,16,36,9.40
2013,03,23,16,37,9.30
2013,03,23,16,38,9.30
2013,03,23,16,39,9.40
2013,03,23,16,40,9.40
2013,03,23,16,41,9.40
2013,03,23,16,42,9.30
2013,03,23,16,43,9.30
2013,03,23,16,44,9.30
2013,03,23,16,45,9.30
2013,03,23,16,46,9.30
2013,03,23,16,47,9.30
2013,03,23,16,48,9.30
2013,03,23,16,49,9.40
2013,03,23,16,50,9.40
2013,03,23,16,51,9.40
2013,03,23,16,52,9.30
2013,03,23,16,53,9.20
2013,03,23,16,54,9.20
2013,03,23,16,55,9.20
2013,03,23,16,56,9.20
2013,03,23,16,57,9.20
2013,03,23,16,58,9.20
2013,03,23,16,59,9.20
2013,03,23,17,00,9.20
2013,03,23,17,01,9.20
2013,03,23,17,02,9.20
2013,03,23,17,03,9.20
2013,03,23,17,04,9.20
2013,03,23,17,05,9.20
2013,03,23,17,06,9.20
2013,03,23,17,07,9.20
2013,03,23,17,08,9.20
2013,03,23,17,09,9.00
2013,03,23,17,10,9.00
2013,03,23,17,11,8.90
2013,03,23,17,12,8.80
2013,03,23,17,13,8.90
2013,03,23,17,14,8.90
2013,03,23,17,15,9.00
2013,03,23,17,16,9.00
2013,03,23,17,17,9.10
2013,03,23,17,18,9.10
2013,03,23,17,19,9.20
2013,03,23,17,20,9.20
2013,03,23,17,21,9.20
2013,03,23,17,22,9.20
2013,03,23,17,23,9.20
2013,03,23,17,24,9.30
2013,03,23,17,25,9.30
2013,03,23,17,26,9.30
2013,03,23,17,27,9.20
2013,03,23,17,28,9.20
2013,03,23,17,29,9.10
2013,03,23,17,30,9.10
2013,03,23,17,31,9.10
2013,03,23,17,32,9.10
2013,03,23,17,33,9.20
2013,03,23,17,34,9.20
2013,03,23,17,35,9.20
2013,03,23,17,36,9.10
2013,03,23,17,37,9.10
2013,03,23,17,38,9.00
2013,03,23,17,39,8.90
2013,03,23,17,40,8.90
2013,03,23,17,41,8.90
2013,03,23,17,42,8.90
2013,03,23,17,43,8.90
2013,03,23,17,44,8.90
2013,03,23,17,45,9.00
2013,03,23,17,46,9.00
2013,03,23,17,47,9.10
2013,03,23,17,48,9.00
2013,03,23,17,49,8.90
2013,03,23,17,50,8.80
2013,03,23,17,51,8.80
2013,03,23,17,52,8.80
2013,03,23,17,53,8.80
2013,03,23,17,54,8.80
2013,03,23,17,55,8.70
2013,03,23,17,56,8.70
2013,03,23,17,57,8.70
2013,03,23,17,58,8.60
2013,03,23,17,59,8.60
2013,03,23,18,00,8.60
2013,03,23,18,01,8.60
2013,03,23,18,02,8.60
2013,03,23,18,03,8.60
2013,03,23,18,04,8.60